Regional Weather Roundup
Issued by NWS

Home | Current Version | Previous Version | Graphics & Text | Print | Product List | Glossary On
Versions: 1 2 3 4 5 6 7 8 9 10 11 12 13 14 15 16 17 18 19 20 21 22 23 24 25 26 27 28 29 30 31 32 33 34 35 36 37 38 39 40 41 42 43 44 45 46 47 48 49 50
336
ASUS43 KDTX 251910
RWRMI
MICHIGAN HOURLY REGIONAL WEATHER ROUNDUP
NATIONAL WEATHER SERVICE DETROIT/PONTIAC MI
200 PM EST SUN FEB 25 2018

NOTE: "FAIR" INDICATES FEW OR NO CLOUDS BELOW 12,000 FEET WITH NO
SIGNIFICANT WEATHER AND/OR OBSTRUCTION TO VISIBILITY.

MIZ047>049-052>055-059>063-066>070-074>076-081>083-252000-
SOUTHEAST LOWER MICHIGAN

CITY           SKY/WX    TMP DP  RH WIND       PRES   REMARKS
ADRIAN         PTSUNNY   40  28  62 W16G30    29.93R WCI  31
ALMA           PTSUNNY   40  26  57 SW26G39   29.80R WCI  28
ANN ARBOR      PTSUNNY   42  28  57 SW18G32   29.88R
BAD AXE        CLOUDY    40  28  61 SW28G40   29.74R WCI  29
CARO           FAIR      42  28  55 SW25G38   29.77R
DETROIT CITY   PTSUNNY   44  27  51 SW24G37   29.86R
DETROIT        PTSUNNY   44  27  51 SW25G37   29.90R
FLINT          FAIR      43  26  51 SW24G36   29.82R
GROSSE ILE     CLOUDY    43  29  56 SW22G30   29.89R
HILLSDALE      CLOUDY    37  28  70 SW22G29   29.90S WCI  27
HOWELL         PTSUNNY   43  29  57 SW21G29   29.84R

CITY           SKY/WX    TMP DP  RH WIND       PRES   REMARKS
JACKSON        PTSUNNY   40  28  62 SW20G37   29.88R WCI  30
LAMBERTVILLE   FAIR      41  29  62 W18G25    29.93S
LANSING        FAIR      43  26  51 SW28G38   29.84R
LAPEER         FAIR      44  26  48 W23G31    29.80R
MASON          FAIR      44  24  45 SW12G30   29.86R
MONROE         CLOUDY    42  29  61 W23G38    29.91R
MT. CLEMENS    MOSUNNY   46  31  56 SW25G33   29.83R
PONTIAC        FAIR      45  26  47 SW21G31   29.82R
PORT HOPE        N/A     42  28  57 SW20G39   29.68R
PORT HURON     FAIR      45  25  45 SW18G29   29.81R
TRI CITIES     PTSUNNY   41  27  57 SW23G35   29.76R
MIDLAND        CLOUDY    41  26  55 SW23G38   29.75R
TROY           FAIR      46  28  50 SW15G29   29.87R
SAGINAW HB     PTSUNNY   41  30  65 SW30G38   29.78R
$$
MIZ043>046-050>051-056>058-064>065-071>073-077>080-252000-
SOUTHWEST LOWER MICHIGAN

CITY           SKY/WX    TMP DP  RH WIND       PRES   REMARKS
BATTLE CREEK   FAIR      42  26  53 SW24G32   29.89R
BENTON HARBOR  FAIR      41  25  53 SW23G33   29.93R
BIG RAPIDS     PTSUNNY   38  23  55 SW20G28   29.75R WCI  28
COLDWATER      CLOUDY    40  29  65 W17G29    29.92S WCI  32
FREMONT        PTSUNNY   38  20  48 SW24G31   29.79S WCI  27
HOLLAND        FAIR      39  28  64 SW28G37   29.88S WCI  28
GRAND RAPIDS   PTSUNNY   39  27  62 SW29G39   29.85R WCI  27
IONIA          CLOUDY    43  26  52 SW31G39   29.83R
KALAMAZOO      FAIR      43  26  51 SW20G33   29.90S
LUDINGTON      FAIR      36  25  64 SW23G30   29.76S WCI  25
MARSHALL       CLOUDY    42  27  54 SW21G29   29.89S
MOUNT PLEASANT FAIR      40  25  54 SW29G40   29.75R WCI  29
MUSKEGON       FAIR      40  26  57 SW26G33   29.84S WCI  29
SOUTH HAVEN    FAIR      41  28  60 SW18G29   29.92R
$$
MIZ016>042-252000-
NORTHERN LOWER MICHIGAN

CITY           SKY/WX    TMP DP  RH WIND       PRES   REMARKS
ALPENA         FAIR      39  22  50 SW23G33   29.59R WCI  28
BEAVER ISLAND  CLOUDY    31  23  73 SW26G37   29.58R WCI  17
BELLAIRE       CLOUDY    35  25  66 SW13G22   29.66R WCI  26
CADILLAC       FAIR      34  22  61 SW28G38   29.67R WCI  21
CHARLEVOIX     CLOUDY    33  24  69 SW23G35   29.65R WCI  20
FRANKFORT      PTSUNNY   34  24  66 SW18G29   29.71R WCI  23
GAYLORD        PTSUNNY   32  25  75 SW28G37   29.60R WCI  18
GRAYLING       FAIR      36  22  57 W16G28    29.63R WCI  26
HARBOR SPRINGS CLOUDY    32  24  70 SW18G29   29.60R WCI  21
HOUGHTON LAKE  FAIR      37  24  59 W23G31    29.67R WCI  26
MANISTEE       PTSUNNY   36  23  59 SW12G26   29.73R WCI  28
OSCODA         PTSUNNY   41  22  46 SW29G40   29.65R
PELLSTON       CLOUDY    33  23  66 SW21G43   29.58R WCI  21
ROGERS CITY    FAIR      36  23  59 W23G35    29.57R WCI  24
TRAVERSE CITY  PTSUNNY   36  23  59 SW22G36   29.65R WCI  25
$$
MIZ007>008-015-252000-
EASTERN UPPER MICHIGAN

CITY           SKY/WX    TMP DP  RH WIND       PRES   REMARKS
KINROSS        CLOUDY    28  24  85 SW16G25   29.52R WCI  16
NEWBERRY       CLOUDY    27  26  96 SW26G37   29.48R FOG     WCI  11
S. S. MARIE    CLOUDY    31  24  75 SW22G32   29.49R WCI  18
MUNISING         N/A     32  23  69 SW12G18   29.47R WCI  23
$$
MIZ004>006-011>014-085-252000-
CENTRAL UPPER MICHIGAN

CITY           SKY/WX    TMP DP  RH WIND       PRES   REMARKS
MANISTIQUE     CLOUDY    28  25  91 SW14G23   29.53S WCI  16
ESCANABA       CLOUDY    31  23  72 SW23G33   29.54R WCI  18
MENOMINEE      CLOUDY    29  22  75 W18G28    29.63R WCI  16
SAWYER-GWINN   PTSUNNY   27  18  69 W20G37    29.44R HAZE    WCI  13
$$
MIZ001>003-009>011-084-252000-
WESTERN UPPER MICHIGAN

CITY           SKY/WX    TMP DP  RH WIND       PRES   REMARKS
IRON MOUNTAIN  CLOUDY    26  18  71 W15G30    29.53R WCI  14
HOUGHTON       LGT SNOW  26  18  71 W26G51    29.38R VSB 1   WCI  10
COPPER HARBOR    N/A     28  20  71 NW22G40   29.35R WCI  14
IRONWOOD       LGT SNOW  24  18  77 W23G35    29.52R WCI   9
$$

ABBREVIATIONS USED IN REMARKS
   TC - TEMPERATURE IN CELSIUS
  WCI - WIND CHILL INDEX
   HX - HEAT INDEX
  VSB - VISIBILITY





USA.gov is the U.S. government's official web portal to all federal, state and local government web resources and services.